Beaufort MCAS, SC

6:15 PM EDT on April 28, 2017 (GMT -0400)
Beaufort Marine Corps Air Station

Weather History for KNBC - January, 2014

Change the Weather History Date:

Thursday, January 2, 2014

  Actual Average Record
Temperature  
Mean Temperature 54 °F -  
Max Temperature 59 °F 59 °F 80 °F (2017)
Min Temperature 46 °F 41 °F 23 °F (2001)
Degree Days  
Heating Degree Days 12    
Growing Degree Days 4 (Base 50)    
Moisture  
Dew Point 50 °F    
Average Humidity 91    
Maximum Humidity 100    
Minimum Humidity 52    
Precipitation  
Precipitation 0.77 in - - ()
Sea Level Pressure  
Sea Level Pressure 29.90 in    
Wind  
Wind Speed 6 mph (WNW)    
Max Wind Speed 25 mph    
Max Gust Speed 33 mph    
Visibility 7 miles    
Events Rain    
Averages and records for this station are not official NWS values.
T = Trace of Precipitation, MM = Missing Value Source: NWS Daily Summary

Daily Weather History Graph

Daily Weather History Graph

Search for Another Location

Airport or City:

Trip Planner

Search our weather history database for the weather conditions in past years. The results will help you decide how hot, cold, wet, or windy it might be!

Date:

Astronomy

Jan. 02, 2014 Rise Set
Actual Time 7:24 AM EST 5:29 PM EST
Civil Twilight 6:57 AM EST 5:56 PM EST
Nautical Twilight 6:27 AM EST 6:26 PM EST
Astronomical Twilight 5:57 AM EST 6:56 PM EST
Moon 8:11 AM EST (1/2) 7:17 PM EST (1/2)
Length of Visible Light 10h 58m
Length of Day
10h 04m
New Moon, 2% of the Moon is Illuminated
Jan 2
New Moon
Jan 7
First Quarter
Jan 15
Full
Jan 24
Last Quarter
Jan 30
New

Hourly Weather History & Observations

Time (EST) Temp. Dew Point Humidity Pressure Visibility Wind Dir Wind Speed Gust Speed Precip Events Conditions
12:19 AM 50.0 °F 48.0 °F 93% 30.15 in 7.0 mi North 5.8 mph - N/A   Overcast
12:56 AM 50.0 °F 48.0 °F 93% 30.14 in 6.0 mi NNW 4.6 mph - 0.01 in Rain Light Rain
1:10 AM 48.9 °F 46.9 °F 93% 30.14 in 6.0 mi North 5.8 mph - 0.01 in Rain Light Rain
1:51 AM 48.2 °F 46.4 °F 93% 30.12 in 7.0 mi North 4.6 mph - 0.04 in Rain Light Rain
1:56 AM 48.9 °F 46.9 °F 93% 30.12 in 7.0 mi North 4.6 mph - 0.04 in Rain Light Rain
2:03 AM 48.9 °F 46.9 °F 93% 30.11 in 6.0 mi Calm Calm - 0.01 in Rain Rain
2:56 AM 50.0 °F 48.0 °F 93% 30.10 in 4.0 mi North 4.6 mph - 0.10 in Rain Rain
3:10 AM 50.0 °F 48.0 °F 93% 30.10 in 6.0 mi NNW 5.8 mph - 0.01 in Rain Light Rain
3:25 AM 48.9 °F 46.9 °F 93% 30.09 in 5.0 mi North 3.5 mph - 0.03 in Rain Light Rain
3:53 AM 48.2 °F 46.4 °F 93% 30.07 in 4.0 mi NNE 5.8 mph - 0.04 in Rain Light Rain
3:56 AM 48.9 °F 46.9 °F 93% 30.07 in 4.0 mi North 4.6 mph - 0.04 in Rain Light Rain
4:29 AM 48.9 °F 48.0 °F 97% 30.05 in 4.0 mi NNE 4.6 mph - 0.07 in Rain Heavy Rain
4:50 AM 48.2 °F 48.2 °F 100% 30.04 in 6.0 mi North 4.6 mph - 0.10 in Rain Rain
4:56 AM 48.9 °F 48.0 °F 97% 30.04 in 7.0 mi North 5.8 mph - 0.10 in Rain Rain
5:19 AM 48.9 °F 46.9 °F 93% 30.03 in 6.0 mi NNE 5.8 mph - 0.04 in Rain Rain
5:29 AM 48.9 °F 48.0 °F 97% 30.02 in 6.0 mi NNE 6.9 mph - 0.06 in Rain Rain
5:56 AM 48.9 °F 46.9 °F 93% 30.01 in 10.0 mi NNE 8.1 mph - 0.07 in Rain Light Rain
6:22 AM 48.9 °F 46.9 °F 93% 30.01 in 9.0 mi NNE 4.6 mph - 0.01 in Rain Light Rain
6:56 AM 48.9 °F 46.9 °F 93% 30.00 in 8.0 mi North 3.5 mph - 0.05 in Rain Rain
7:56 AM 50.0 °F 48.0 °F 93% 29.99 in 4.0 mi Calm Calm - 0.10 in Rain Rain
8:56 AM 51.1 °F 48.9 °F 92% 29.97 in 6.0 mi ENE 4.6 mph - 0.06 in Rain Rain
9:24 AM 51.1 °F 48.9 °F 92% 29.97 in 10.0 mi East 3.5 mph - 0.00 in   Mostly Cloudy
9:56 AM 51.1 °F 48.9 °F 92% 29.97 in 10.0 mi Calm Calm - 0.01 in Rain Light Rain
10:36 AM 52.0 °F 50.0 °F 93% 29.95 in 7.0 mi SE 3.5 mph - 0.01 in Rain Light Rain
10:56 AM 52.0 °F 50.0 °F 93% 29.94 in 8.0 mi SSE 3.5 mph - 0.01 in Rain Light Rain
11:18 AM 53.1 °F 51.1 °F 93% 29.91 in 6.0 mi SSE 5.8 mph - 0.02 in Rain Light Rain
11:32 AM 53.1 °F 51.1 °F 93% 29.90 in 9.0 mi SSE 5.8 mph - 0.02 in   Overcast
11:56 AM 53.1 °F 52.0 °F 96% 29.88 in 5.0 mi South 4.6 mph - 0.03 in Rain Light Rain
12:21 PM 53.1 °F 52.0 °F 96% 29.86 in 5.0 mi South 3.5 mph - 0.01 in Rain Light Rain
12:47 PM 54.0 °F 52.0 °F 93% 29.85 in 2.5 mi South 3.5 mph - 0.05 in Rain Rain
12:56 PM 54.0 °F 52.0 °F 93% 29.84 in 3.0 mi South 3.5 mph - 0.07 in Rain Rain
1:05 PM 54.0 °F 52.0 °F 93% 29.84 in 2.5 mi South 3.5 mph - 0.01 in Rain Rain
1:16 PM 54.0 °F 53.1 °F 97% 29.83 in 4.0 mi South 3.5 mph - 0.02 in Rain Light Rain
1:41 PM 55.0 °F 53.1 °F 93% 29.82 in 4.0 mi SSW 4.6 mph - 0.04 in Rain Light Rain
1:53 PM 55.4 °F 53.6 °F 94% 29.80 in 4.0 mi South 4.6 mph - 0.05 in Rain Light Rain
1:56 PM 55.0 °F 53.1 °F 93% 29.80 in 5.0 mi South 4.6 mph - 0.05 in Rain Light Rain
2:19 PM 55.0 °F 53.1 °F 93% 29.77 in 7.0 mi South 5.8 mph - 0.01 in Rain Light Rain
2:42 PM 55.0 °F 54.0 °F 96% 29.75 in 10.0 mi South 4.6 mph - 0.01 in   Overcast
2:56 PM 55.9 °F 54.0 °F 93% 29.76 in 10.0 mi South 4.6 mph - 0.01 in   Overcast
3:38 PM 57.0 °F 55.0 °F 93% 29.74 in 10.0 mi SSW 4.6 mph - 0.01 in   Overcast
3:52 PM 57.2 °F 55.4 °F 94% 29.74 in 10.0 mi SSW 4.6 mph - 0.01 in   Overcast
3:56 PM 57.0 °F 55.0 °F 93% 29.74 in 10.0 mi SSW 4.6 mph - 0.01 in   Overcast
4:56 PM 57.0 °F 55.9 °F 96% 29.72 in 7.0 mi SSW 6.9 mph - N/A   Overcast
5:56 PM 57.9 °F 57.0 °F 97% 29.72 in 6.0 mi WSW 16.1 mph 23.0 mph 0.00 in Rain Light Rain
6:19 PM 59.0 °F 57.0 °F 93% 29.72 in 10.0 mi West 15.0 mph - 0.01 in   Overcast
6:56 PM 59.0 °F 57.0 °F 93% 29.73 in 5.0 mi WNW 12.7 mph 24.2 mph 0.01 in   Overcast
7:13 PM 57.9 °F 55.9 °F 93% 29.74 in 10.0 mi West 15.0 mph 24.2 mph N/A   Overcast
7:23 PM 57.9 °F 55.9 °F 93% 29.74 in 10.0 mi WNW 13.8 mph - N/A   Overcast
7:38 PM 57.9 °F 55.0 °F 90% 29.74 in 10.0 mi WNW 16.1 mph 23.0 mph N/A   Overcast
7:56 PM 57.9 °F 54.0 °F 87% 29.76 in 10.0 mi WNW 15.0 mph 25.3 mph N/A   Overcast
8:15 PM 57.9 °F 53.1 °F 84% 29.76 in 10.0 mi WNW 12.7 mph 21.9 mph N/A   Overcast
8:49 PM 57.0 °F 53.1 °F 87% 29.76 in 10.0 mi WNW 10.4 mph 19.6 mph N/A   Overcast
8:56 PM 57.0 °F 53.1 °F 87% 29.77 in 10.0 mi WNW 9.2 mph - N/A   Overcast
9:26 PM 55.9 °F 50.0 °F 80% 29.78 in 10.0 mi WNW 12.7 mph 21.9 mph N/A   Overcast
9:47 PM 55.9 °F 46.9 °F 72% 29.79 in 10.0 mi WNW 24.2 mph 32.2 mph N/A   Overcast
9:56 PM 54.0 °F 44.1 °F 69% 29.80 in 10.0 mi NW 25.3 mph 33.4 mph N/A   Overcast
10:56 PM 50.0 °F 39.9 °F 68% 29.84 in 10.0 mi WNW 18.4 mph 32.2 mph N/A   Partly Cloudy
11:56 PM 46.9 °F 30.0 °F 52% 29.86 in 10.0 mi WNW 19.6 mph 26.5 mph N/A   Clear